Regional Weather Roundup
Issued by NWS

Home | Current Version | Previous Version | Graphics & Text | Print | Product List | Glossary On
Versions: 1 2 3 4 5 6 7 8 9 10 11 12 13 14 15 16 17 18 19 20 21 22 23 24 25 26 27 28 29 30 31 32 33 34 35 36 37 38 39 40 41 42 43 44 45 46 47 48 49 50
000
ASUS43 KTOP 261508
RWRKS

WEATHER ROUNDUP FOR KANSAS
NATIONAL WEATHER SERVICE GOODLAND KS
1000 AM CDT MON SEP 26 2016

NOTE:  "FAIR" INDICATES FEW OR NO CLOUDS BELOW 12,000 FEET WITH NO
SIGNIFICANT WEATHER AND/OR OBSTRUCTIONS TO VISIBILITY.

KSZ001>006-013>018-027>032-041>047-261600-
NORTHWEST KANSAS

CITY           SKY/WX    TMP DP  RH WIND       PRES   REMARKS
GOODLAND       SUNNY     58  30  34 SW9       30.38S
HAYS           SUNNY     57  37  47 W6        30.36S
HILL CITY      SUNNY     57  39  51 W6        30.36F
RUSSELL        SUNNY     57  44  62 W7        30.34R
$$

KSZ061>065-074>080-084>089-261600-
SOUTHWEST KANSAS

CITY           SKY/WX    TMP DP  RH WIND       PRES   REMARKS
DODGE CITY     SUNNY     60  31  33 CALM      30.39S
ELKHART          N/A    N/A N/A N/A MISG        N/A
GARDEN CITY    SUNNY     60  28  29 CALM      30.39S
GREAT BEND     SUNNY     57  41  54 W6        30.36R
LIBERAL        SUNNY     57  39  51 N3        30.41S
PRATT          SUNNY     57  40  54 CALM      30.37R
$$

KSZ066>073-081>083-090>101-261600-
SOUTHEAST KANSAS

CITY           SKY/WX    TMP DP  RH WIND       PRES   REMARKS
CHANUTE        SUNNY     63  48  58 N8        30.30R
COFFEYVILLE    SUNNY     64  49  57 N9        30.29R
HUTCHINSON     SUNNY     58  45  62 W6        30.35R
MEDICINE LODGE   N/A     60  45  57 N3          N/A
NEWTON         SUNNY    N/A N/A N/A MISG      30.33S
PARSONS        SUNNY     64  51  62 N7        30.30R
WICHITA INTL   MOSUNNY   62  45  53 NW3       30.33R
WICHITA JABRA  SUNNY     62  46  55 N5        30.32S
WICHITA MCCONL SUNNY     61  45  56 VRB2      30.33R
WINFIELD       SUNNY     62  47  57 NE5       30.33S
$$

KSZ007>012-019>026-033>040-048>060-102>105-261600-
NORTHEAST KANSAS

CITY           SKY/WX    TMP DP  RH WIND       PRES   REMARKS
CONCORDIA      SUNNY     57  43  59 W6        30.32R
EMPORIA        SUNNY     60  47  61 N5        30.31R
LAWRENCE       SUNNY     60  52  74 NW3       30.28F
MANHATTAN      SUNNY     57  47  69 CALM      30.31S
MARYSVILLE     SUNNY     57  45  62 CALM      30.29S
OLATHE IND     SUNNY     59  47  64 NW6       30.29R
OLATHE EXE     SUNNY     58  44  60 W5        30.28R
SALINA         SUNNY     59  46  62 NW7       30.33S
TOPEKA BILLARD SUNNY     58  48  69 SW6       30.29S
TOPEKA FORBES  SUNNY     61  45  55 W6        30.30R
$$




USA.gov is the U.S. government's official web portal to all federal, state and local government web resources and services.